QPF
0.00 0.00 0.00 0.00 0.00 0.00 0.00 0.00 0.00 0.00 0.00 0.00 0.00 0.00 0.00 0.00 0.00 0.00 0.00 0.00 0.00 0.00 0.00 0.00 0.00 0.00 0.00 0.00 0.00 0.00 0.00 0.00 0.00 0.00 0.00 0.00 0.00 0.00 0.00 0.00 0.00 0.00 0.00
0.00 0.00 0.00 0.00 0.00 0.00 0.00 0.00 0.00 0.00 0.00 0.00 0.00 0.00 0.00 0.00 0.00 0.00 0.00 0.00 0.00 0.00 0.00 0.00 0.00 0.00 0.00 0.00 0.00 0.00 0.00 0.00 0.00 0.00 0.00 0.00 0.00 0.00 0.00 0.00 0.00 0.00 0.00
0.00 0.00 0.00 0.00 0.00 0.00 0.00 0.00 0.00 0.00 0.00 0.00 0.00 0.00 0.00 0.00 0.00 0.00 0.00 0.00 0.00 0.00 0.00 0.00 0.00 0.00 0.00 0.00 0.00 0.00 0.00 0.00 0.00 0.00 0.00 0.00 0.00 0.00 0.00 0.00 0.00 0.00 0.00
0.00 0.00 0.00 0.00 0.00 0.00 0.00 0.00 0.00 0.00 0.00 0.00 0.00 0.00 0.00 0.00 0.00 0.00 0.00 0.00 0.00 0.00 0.00 0.00 0.00 0.00 0.00 0.00 0.00 0.00 0.00 0.00 0.00 0.00 0.00 0.00 0.00 0.00 0.00 0.00 0.00 0.00 0.00
0.00 0.00 0.00 0.00 0.00 0.00 0.00 0.00 0.00 0.00 0.00 0.00 0.00 0.00 0.00 0.00 0.00 0.00 0.00 0.00 0.00 0.00 0.00 0.00 0.00 0.00 0.00 0.00 0.00 0.00 0.00 0.00 0.00 0.00 0.00 0.00 0.00 0.01 0.01 0.01 0.01 0.01 0.01
0.00 0.00 0.00 0.00 0.00 0.00 0.00 0.00 0.00 0.00 0.00 0.00 0.00 0.00 0.00 0.00 0.00 0.00 0.00 0.00 0.00 0.00 0.00 0.00 0.00 0.00 0.00 0.00 0.00 0.00 0.00 0.00 0.00 0.00 0.00 0.00 0.00 0.01 0.01 0.01 0.01 0.01 0.01
0.00 0.00 0.00 0.00 0.00 0.00 0.00 0.00 0.00 0.00 0.00 0.00 0.00 0.00 0.00 0.00 0.00 0.00 0.00 0.00 0.00 0.00 0.00 0.00 0.00 0.00 0.00 0.00 0.00 0.00 0.00 0.00 0.00 0.00 0.00 0.00 0.00 0.01 0.01 0.01 0.01 0.01 0.01
0.00 0.00 0.00 0.00 0.00 0.00 0.00 0.00 0.00 0.00 0.00 0.00 0.00 0.00 0.00 0.00 0.00 0.00 0.00 0.00 0.00 0.00 0.00 0.00 0.00 0.00 0.00 0.00 0.00 0.00 0.00 0.00 0.00 0.00 0.00 0.00 0.00 0.01 0.01 0.01 0.02 0.02 0.02
0.00 0.00 0.00 0.00 0.00 0.00 0.00 0.00 0.00 0.00 0.00 0.00 0.00 0.00 0.00 0.00 0.00 0.00 0.00 0.00 0.00 0.00 0.00 0.00 0.00 0.00 0.00 0.00 0.00 0.00 0.00 0.00 0.00 0.00 0.00 0.00 0.00 0.01 0.01 0.02 0.02 0.02 0.03
0.00 0.00 0.00 0.00 0.00 0.00 0.00 0.00 0.00 0.00 0.00 0.00 0.00 0.00 0.00 0.00 0.00 0.00 0.00 0.00 0.00 0.00 0.00 0.00 0.00 0.00 0.00 0.00 0.00 0.00 0.00 0.00 0.00 0.00 0.00 0.00 0.00 0.01 0.02 0.02 0.03 0.03 0.04
0.00 0.00 0.00 0.00 0.00 0.00 0.00 0.00 0.00 0.00 0.00 0.00 0.00 0.00 0.00 0.00 0.00 0.00 0.00 0.00 0.00 0.00 0.00 0.00 0.00 0.00 0.00 0.00 0.00 0.00 0.00 0.00 0.00 0.00 0.00 0.00 0.00 0.01 0.01 0.02 0.03 0.04 0.05
0.00 0.00 0.00 0.00 0.00 0.00 0.00 0.00 0.00 0.00 0.00 0.00 0.00 0.00 0.00 0.00 0.00 0.00 0.00 0.00 0.00 0.00 0.00 0.00 0.00 0.00 0.00 0.00 0.00 0.00 0.00 0.00 0.00 0.00 0.00 0.00 0.00 0.00 0.01 0.01 0.03 0.04 0.06
0.00 0.00 0.00 0.00 0.00 0.00 0.00 0.00 0.00 0.00 0.00 0.00 0.00 0.00 0.00 0.00 0.00 0.00 0.00 0.00 0.00 0.00 0.00 0.00 0.00 0.00 0.00 0.00 0.00 0.00 0.00 0.00 0.00 0.00 0.00 0.00 0.00 0.00 0.00 0.00 0.01 0.02 0.04
0.00 0.00 0.00 0.00 0.00 0.00 0.00 0.00 0.00 0.00 0.00 0.00 0.00 0.00 0.00 0.00 0.00 0.00 0.00 0.00 0.00 0.00 0.00 0.00 0.00 0.00 0.00 0.00 0.00 0.00 0.00 0.00 0.00 0.00 0.00 0.00 0.00 0.00 0.00 0.00 0.00 0.01 0.02
0.00 0.00 0.00 0.00 0.00 0.00 0.00 0.00 0.00 0.00 0.00 0.00 0.00 0.00 0.00 0.00 0.00 0.00 0.00 0.00 0.00 0.00 0.00 0.00 0.00 0.00 0.00 0.00 0.00 0.00 0.00 0.00 0.00 0.00 0.00 0.00 0.00 0.00 0.00 0.00 0.00 0.00 0.01
0.00 0.00 0.00 0.00 0.00 0.00 0.00 0.00 0.00 0.00 0.00 0.00 0.00 0.00 0.00 0.00 0.00 0.00 0.00 0.00 0.00 0.01 0.01 0.00 0.00 0.00 0.00 0.00 0.00 0.00 0.00 0.00 0.00 0.00 0.00 0.00 0.00 0.00 0.00 0.00 0.00 0.01 0.01
0.00 0.00 0.00 0.00 0.00 0.00 0.00 0.00 0.00 0.00 0.00 0.00 0.00 0.00 0.00 0.00 0.00 0.00 0.00 0.00 0.00 0.01 0.01 0.00 0.00 0.00 0.00 0.00 0.00 0.00 0.00 0.00 0.00 0.00 0.00 0.00 0.00 0.00 0.00 0.01 0.01 0.01 0.01
0.00 0.00 0.00 0.00 0.00 0.00 0.00 0.00 0.00 0.00 0.00 0.00 0.00 0.00 0.00 0.00 0.00 0.00 0.00 0.00 0.00 0.00 0.01 0.01 0.00 0.00 0.00 0.00 0.00 0.00 0.00 0.00 0.00 0.00 0.00 0.00 0.00 0.00 0.01 0.01 0.01 0.01 0.01
0.00 0.00 0.00 0.00 0.00 0.00 0.00 0.00 0.00 0.00 0.00 0.00 0.00 0.00 0.00 0.00 0.00 0.00 0.00 0.00 0.00 0.01 0.01 0.01 0.01 0.00 0.00 0.00 0.00 0.00 0.00 0.00 0.00 0.00 0.00 0.00 0.00 0.00 0.01 0.01 0.01 0.02 0.02
0.00 0.00 0.00 0.00 0.00 0.00 0.00 0.00 0.00 0.00 0.00 0.00 0.00 0.00 0.00 0.00 0.00 0.00 0.00 0.01 0.01 0.01 0.01 0.01 0.01 0.01 0.01 0.00 0.01 0.01 0.01 0.01 0.01 0.01 0.00 0.00 0.00 0.00 0.01 0.01 0.01 0.02 0.02
0.00 0.00 0.00 0.00 0.00 0.00 0.00 0.00 0.00 0.00 0.00 0.00 0.00 0.00 0.00 0.01 0.01 0.01 0.02 0.02 0.02 0.02 0.03 0.03 0.03 0.02 0.02 0.01 0.02 0.01 0.02 0.01 0.01 0.01 0.00 0.00 0.00 0.00 0.00 0.00 0.01 0.01 0.02
0.00 0.00 0.00 0.00 0.00 0.00 0.00 0.00 0.00 0.00 0.00 0.00 0.00 0.00 0.00 0.01 0.01 0.02 0.03 0.04 0.05 0.05 0.06 0.07 0.07 0.06 0.03 0.02 0.03 0.03 0.04 0.03 0.02 0.01 0.01 0.01 0.01 0.01 0.00 0.00 0.00 0.01 0.01
0.00 0.00 0.00 0.00 0.00 0.00 0.00 0.00 0.00 0.00 0.00 0.00 0.00 0.01 0.00 0.00 0.01 0.01 0.01 0.02 0.03 0.03 0.05 0.06 0.07 0.06 0.04 0.04 0.06 0.07 0.06 0.05 0.03 0.01 0.02 0.02 0.01 0.00 0.00 0.00 0.00 0.01 0.01
0.00 0.00 0.00 0.00 0.00 0.00 0.00 0.00 0.00 0.00 0.00 0.00 0.00 0.00 0.01 0.01 0.01 0.01 0.01 0.01 0.01 0.01 0.01 0.02 0.03 0.03 0.03 0.04 0.06 0.07 0.07 0.07 0.05 0.02 0.02 0.04 0.01 0.00 0.00 0.00 0.00 0.00 0.00
0.00 0.00 0.00 0.00 0.00 0.00 0.00 0.00 0.00 0.00 0.00 0.00 0.00 0.00 0.01 0.01 0.01 0.03 0.03 0.02 0.02 0.01 0.01 0.02 0.03 0.03 0.04 0.06 0.08 0.11 0.13 0.13 0.11 0.03 0.01 0.03 0.01 0.01 0.00 0.00 0.00 0.00 0.01
0.00 0.00 0.00 0.00 0.00 0.00 0.00 0.00 0.00 0.00 0.01 0.01 0.01 0.01 0.01 0.02 0.03 0.04 0.04 0.04 0.03 0.02 0.01 0.02 0.02 0.02 0.02 0.03 0.05 0.08 0.11 0.14 0.13 0.07 0.01 0.01 0.01 0.02 0.03 0.00 0.00 0.00 0.00
MSLP
1022.03 1022.22 1022.34 1022.41 1022.44 1022.46 1022.50 1022.55 1022.62 1022.70 1022.77 1022.82 1022.83 1022.81 1022.76 1022.69 1022.62 1022.56 1022.50 1022.45 1022.39 1022.32 1022.22 1022.10 1021.96 1021.81 1021.66 1021.52 1021.41 1021.33 1021.28 1021.26 1021.26 1021.29 1021.34 1021.42 1021.51 1021.62 1021.74 1021.85 1021.95 1022.02 1022.06
1021.72 1021.90 1022.02 1022.08 1022.12 1022.14 1022.17 1022.22 1022.28 1022.34 1022.39 1022.42 1022.41 1022.37 1022.29 1022.18 1022.07 1021.96 1021.86 1021.78 1021.70 1021.62 1021.53 1021.43 1021.32 1021.19 1021.05 1020.91 1020.79 1020.68 1020.60 1020.55 1020.54 1020.57 1020.64 1020.74 1020.87 1021.02 1021.17 1021.31 1021.43 1021.51 1021.56
1021.38 1021.56 1021.69 1021.78 1021.84 1021.89 1021.93 1021.98 1022.04 1022.09 1022.12 1022.12 1022.08 1021.99 1021.86 1021.70 1021.52 1021.34 1021.18 1021.04 1020.94 1020.85 1020.77 1020.70 1020.62 1020.53 1020.42 1020.30 1020.17 1020.04 1019.94 1019.86 1019.82 1019.84 1019.90 1020.00 1020.15 1020.31 1020.48 1020.63 1020.76 1020.86 1020.92
1021.05 1021.25 1021.41 1021.53 1021.63 1021.72 1021.79 1021.85 1021.91 1021.95 1021.96 1021.93 1021.84 1021.70 1021.50 1021.26 1021.01 1020.75 1020.51 1020.32 1020.16 1020.06 1019.99 1019.94 1019.90 1019.85 1019.78 1019.68 1019.56 1019.43 1019.30 1019.19 1019.11 1019.09 1019.12 1019.20 1019.33 1019.48 1019.64 1019.79 1019.93 1020.04 1020.13
1020.77 1020.99 1021.18 1021.35 1021.50 1021.62 1021.72 1021.80 1021.86 1021.88 1021.87 1021.80 1021.67 1021.48 1021.22 1020.91 1020.57 1020.23 1019.91 1019.65 1019.44 1019.31 1019.23 1019.20 1019.19 1019.18 1019.14 1019.07 1018.96 1018.82 1018.66 1018.51 1018.39 1018.31 1018.29 1018.33 1018.41 1018.53 1018.66 1018.80 1018.93 1019.05 1019.17
1020.56 1020.79 1021.02 1021.22 1021.40 1021.55 1021.67 1021.76 1021.82 1021.83 1021.80 1021.71 1021.55 1021.31 1021.01 1020.64 1020.23 1019.82 1019.43 1019.09 1018.82 1018.65 1018.55 1018.51 1018.51 1018.52 1018.50 1018.45 1018.34 1018.19 1018.00 1017.81 1017.63 1017.50 1017.41 1017.38 1017.41 1017.47 1017.57 1017.68 1017.80 1017.93 1018.07
1020.42 1020.65 1020.89 1021.11 1021.31 1021.47 1021.60 1021.69 1021.74 1021.74 1021.70 1021.60 1021.43 1021.18 1020.85 1020.46 1020.00 1019.54 1019.08 1018.67 1018.34 1018.11 1017.96 1017.90 1017.88 1017.88 1017.86 1017.80 1017.69 1017.52 1017.31 1017.08 1016.85 1016.65 1016.50 1016.41 1016.37 1016.38 1016.42 1016.50 1016.60 1016.73 1016.88
1020.33 1020.55 1020.77 1020.99 1021.18 1021.34 1021.45 1021.53 1021.57 1021.58 1021.54 1021.44 1021.29 1021.05 1020.73 1020.34 1019.87 1019.37 1018.87 1018.40 1018.00 1017.70 1017.48 1017.36 1017.29 1017.26 1017.21 1017.13 1017.00 1016.82 1016.58 1016.32 1016.05 1015.81 1015.61 1015.45 1015.36 1015.31 1015.30 1015.34 1015.41 1015.52 1015.67
1020.29 1020.46 1020.66 1020.84 1021.00 1021.13 1021.22 1021.28 1021.30 1021.31 1021.28 1021.22 1021.09 1020.90 1020.62 1020.25 1019.80 1019.29 1018.75 1018.23 1017.77 1017.38 1017.09 1016.88 1016.74 1016.65 1016.55 1016.44 1016.29 1016.08 1015.83 1015.55 1015.27 1015.01 1014.77 1014.58 1014.43 1014.34 1014.28 1014.27 1014.30 1014.37 1014.50
1020.26 1020.39 1020.53 1020.67 1020.78 1020.86 1020.91 1020.94 1020.95 1020.95 1020.94 1020.91 1020.83 1020.69 1020.46 1020.14 1019.72 1019.22 1018.67 1018.11 1017.58 1017.12 1016.74 1016.44 1016.21 1016.04 1015.89 1015.74 1015.56 1015.34 1015.09 1014.82 1014.55 1014.28 1014.04 1013.83 1013.65 1013.52 1013.41 1013.35 1013.32 1013.34 1013.42
1020.25 1020.33 1020.41 1020.49 1020.54 1020.56 1020.56 1020.55 1020.54 1020.53 1020.54 1020.53 1020.50 1020.41 1020.24 1019.96 1019.58 1019.09 1018.54 1017.95 1017.38 1016.84 1016.38 1015.99 1015.69 1015.44 1015.23 1015.04 1014.84 1014.62 1014.39 1014.14 1013.89 1013.64 1013.41 1013.20 1013.01 1012.85 1012.70 1012.58 1012.49 1012.44 1012.44
1020.25 1020.28 1020.31 1020.33 1020.31 1020.27 1020.21 1020.15 1020.11 1020.09 1020.09 1020.10 1020.10 1020.04 1019.91 1019.67 1019.32 1018.85 1018.30 1017.70 1017.09 1016.50 1015.98 1015.53 1015.15 1014.85 1014.59 1014.36 1014.15 1013.94 1013.72 1013.50 1013.29 1013.07 1012.87 1012.67 1012.48 1012.29 1012.10 1011.92 1011.76 1011.63 1011.55
1020.27 1020.26 1020.24 1020.19 1020.11 1020.01 1019.89 1019.77 1019.69 1019.63 1019.62 1019.62 1019.62 1019.58 1019.46 1019.24 1018.91 1018.46 1017.92 1017.31 1016.69 1016.08 1015.52 1015.03 1014.61 1014.27 1013.98 1013.73 1013.50 1013.30 1013.10 1012.90 1012.72 1012.53 1012.35 1012.17 1011.98 1011.78 1011.55 1011.32 1011.10 1010.89 1010.72
1020.30 1020.26 1020.19 1020.08 1019.94 1019.77 1019.59 1019.42 1019.29 1019.19 1019.14 1019.12 1019.09 1019.03 1018.91 1018.69 1018.36 1017.92 1017.39 1016.80 1016.18 1015.58 1015.02 1014.51 1014.08 1013.71 1013.40 1013.13 1012.90 1012.68 1012.49 1012.30 1012.13 1011.97 1011.80 1011.63 1011.44 1011.22 1010.98 1010.71 1010.43 1010.16 1009.91
1020.32 1020.25 1020.13 1019.97 1019.77 1019.54 1019.31 1019.09 1018.90 1018.76 1018.67 1018.60 1018.53 1018.44 1018.28 1018.04 1017.70 1017.27 1016.75 1016.18 1015.60 1015.02 1014.48 1013.99 1013.56 1013.19 1012.87 1012.59 1012.33 1012.09 1011.88 1011.68 1011.50 1011.32 1011.15 1010.98 1010.78 1010.56 1010.31 1010.02 1009.72 1009.41 1009.12
1020.30 1020.19 1020.02 1019.81 1019.56 1019.29 1019.01 1018.75 1018.52 1018.34 1018.20 1018.08 1017.96 1017.82 1017.62 1017.35 1017.00 1016.56 1016.06 1015.52 1014.98 1014.44 1013.94 1013.49 1013.08 1012.71 1012.38 1012.07 1011.79 1011.51 1011.25 1011.01 1010.78 1010.58 1010.38 1010.19 1010.00 1009.78 1009.53 1009.25 1008.95 1008.65 1008.35
1020.20 1020.05 1019.83 1019.58 1019.28 1018.97 1018.67 1018.38 1018.13 1017.91 1017.74 1017.58 1017.41 1017.22 1016.98 1016.67 1016.30 1015.86 1015.37 1014.86 1014.36 1013.87 1013.42 1013.00 1012.62 1012.26 1011.92 1011.59 1011.25 1010.92 1010.60 1010.29 1010.00 1009.75 1009.51 1009.30 1009.09 1008.88 1008.66 1008.42 1008.15 1007.88 1007.61
1020.00 1019.79 1019.54 1019.24 1018.91 1018.58 1018.26 1017.96 1017.70 1017.48 1017.28 1017.09 1016.89 1016.66 1016.38 1016.04 1015.64 1015.19 1014.71 1014.22 1013.75 1013.30 1012.89 1012.51 1012.16 1011.81 1011.46 1011.10 1010.72 1010.33 1009.93 1009.55 1009.19 1008.88 1008.60 1008.35 1008.14 1007.94 1007.75 1007.56 1007.35 1007.14 1006.93
1019.69 1019.43 1019.13 1018.80 1018.46 1018.12 1017.79 1017.50 1017.25 1017.02 1016.82 1016.62 1016.40 1016.14 1015.82 1015.44 1015.02 1014.55 1014.07 1013.59 1013.14 1012.72 1012.33 1011.98 1011.65 1011.31 1010.96 1010.57 1010.16 1009.72 1009.27 1008.82 1008.41 1008.03 1007.70 1007.43 1007.21 1007.03 1006.88 1006.74 1006.60 1006.46 1006.31
1019.29 1018.99 1018.66 1018.30 1017.94 1017.60 1017.28 1017.00 1016.76 1016.55 1016.35 1016.14 1015.90 1015.62 1015.27 1014.86 1014.40 1013.91 1013.41 1012.92 1012.47 1012.06 1011.69 1011.36 1011.04 1010.72 1010.37 1009.99 1009.57 1009.11 1008.62 1008.14 1007.68 1007.26 1006.90 1006.61 1006.38 1006.21 1006.08 1005.98 1005.90 1005.83 1005.75
1018.83 1018.51 1018.16 1017.79 1017.42 1017.07 1016.76 1016.49 1016.26 1016.05 1015.85 1015.63 1015.38 1015.06 1014.68 1014.24 1013.74 1013.21 1012.67 1012.16 1011.69 1011.27 1010.91 1010.59 1010.29 1010.00 1009.68 1009.32 1008.92 1008.48 1008.00 1007.52 1007.04 1006.61 1006.22 1005.91 1005.67 1005.50 1005.38 1005.32 1005.27 1005.24 1005.21
1018.38 1018.05 1017.69 1017.30 1016.93 1016.57 1016.25 1015.97 1015.73 1015.51 1015.29 1015.06 1014.77 1014.43 1014.01 1013.52 1012.98 1012.40 1011.82 1011.27 1010.76 1010.33 1009.96 1009.64 1009.37 1009.12 1008.85 1008.55 1008.21 1007.82 1007.40 1006.95 1006.49 1006.06 1005.68 1005.35 1005.10 1004.91 1004.79 1004.72 1004.69 1004.68 1004.67
1017.98 1017.64 1017.27 1016.88 1016.49 1016.11 1015.77 1015.46 1015.18 1014.92 1014.67 1014.40 1014.07 1013.68 1013.22 1012.68 1012.09 1011.46 1010.83 1010.23 1009.69 1009.22 1008.84 1008.54 1008.30 1008.09 1007.89 1007.68 1007.42 1007.13 1006.78 1006.40 1006.00 1005.60 1005.23 1004.90 1004.62 1004.41 1004.26 1004.18 1004.13 1004.11 1004.11
1017.62 1017.30 1016.93 1016.53 1016.11 1015.69 1015.30 1014.93 1014.60 1014.28 1013.97 1013.64 1013.26 1012.82 1012.31 1011.73 1011.08 1010.41 1009.73 1009.08 1008.50 1008.01 1007.62 1007.32 1007.10 1006.95 1006.83 1006.71 1006.56 1006.38 1006.14 1005.85 1005.52 1005.17 1004.82 1004.49 1004.20 1003.96 1003.78 1003.66 1003.59 1003.55 1003.54
1017.30 1016.99 1016.62 1016.19 1015.74 1015.27 1014.81 1014.38 1013.97 1013.58 1013.20 1012.80 1012.37 1011.88 1011.32 1010.70 1010.01 1009.30 1008.58 1007.90 1007.29 1006.77 1006.36 1006.07 1005.88 1005.77 1005.72 1005.69 1005.65 1005.57 1005.44 1005.26 1005.01 1004.72 1004.41 1004.09 1003.79 1003.53 1003.32 1003.17 1003.07 1003.02 1003.01
1016.96 1016.66 1016.28 1015.83 1015.33 1014.81 1014.28 1013.77 1013.28 1012.82 1012.37 1011.91 1011.42 1010.90 1010.31 1009.66 1008.96 1008.22 1007.48 1006.78 1006.14 1005.60 1005.18 1004.88 1004.70 1004.62 1004.62 1004.66 1004.71 1004.73 1004.70 1004.61 1004.44 1004.22 1003.95 1003.66 1003.38 1003.11 1002.89 1002.72 1002.61 1002.56 1002.55
Thickness
5646 5644 5641 5640 5638 5636 5634 5633 5632 5631 5631 5631 5631 5631 5631 5631 5631 5631 5632 5631 5631 5631 5631 5632 5633 5633 5634 5634 5634 5634 5634 5633 5633 5632 5632 5631 5630 5629 5628 5627 5627 5626 5625
5642 5639 5637 5635 5633 5632 5630 5629 5627 5626 5626 5626 5626 5626 5626 5626 5626 5627 5627 5627 5627 5626 5626 5626 5627 5627 5628 5628 5628 5628 5628 5628 5627 5627 5626 5625 5624 5623 5622 5621 5621 5620 5619
5638 5635 5632 5630 5628 5627 5625 5624 5622 5621 5620 5620 5620 5620 5620 5621 5621 5622 5622 5623 5623 5622 5621 5621 5621 5621 5621 5622 5622 5622 5622 5621 5621 5621 5620 5619 5618 5617 5616 5615 5614 5613 5613
5633 5630 5628 5625 5623 5621 5620 5618 5616 5614 5613 5613 5613 5614 5615 5616 5617 5617 5618 5618 5618 5618 5617 5616 5615 5614 5614 5615 5615 5615 5615 5614 5614 5614 5613 5613 5612 5611 5610 5609 5608 5607 5606
5629 5626 5623 5620 5618 5616 5614 5612 5610 5608 5607 5606 5606 5608 5609 5609 5610 5611 5612 5613 5613 5613 5612 5611 5609 5607 5606 5606 5607 5607 5608 5607 5607 5607 5606 5606 5605 5604 5603 5602 5601 5600 5599
5623 5620 5617 5614 5612 5609 5607 5605 5603 5602 5600 5599 5599 5601 5602 5603 5603 5605 5606 5607 5608 5607 5605 5604 5603 5601 5599 5597 5597 5597 5598 5599 5599 5599 5599 5598 5598 5597 5597 5596 5595 5593 5592
5617 5614 5611 5608 5605 5602 5600 5598 5596 5594 5593 5591 5589 5590 5595 5597 5600 5602 5603 5603 5603 5601 5599 5597 5596 5594 5592 5590 5588 5587 5587 5588 5590 5591 5591 5590 5590 5590 5589 5589 5588 5587 5586
5610 5608 5604 5601 5599 5596 5593 5591 5589 5586 5585 5582 5578 5575 5578 5587 5593 5598 5598 5597 5596 5595 5593 5590 5588 5586 5584 5582 5580 5577 5576 5576 5577 5579 5580 5581 5581 5581 5581 5580 5580 5580 5579
5604 5602 5599 5596 5593 5590 5587 5584 5582 5579 5576 5574 5570 5564 5562 5566 5575 5584 5585 5585 5585 5584 5583 5581 5579 5577 5574 5572 5571 5568 5565 5564 5564 5565 5567 5569 5570 5571 5571 5572 5572 5571 5571
5598 5595 5592 5589 5586 5583 5580 5578 5576 5572 5569 5566 5563 5560 5558 5555 5553 5562 5571 5572 5570 5568 5567 5567 5567 5566 5564 5562 5559 5556 5553 5551 5550 5550 5551 5553 5555 5558 5560 5561 5562 5562 5562
5591 5588 5585 5582 5578 5576 5573 5570 5568 5565 5561 5557 5554 5551 5548 5546 5543 5542 5551 5555 5555 5555 5554 5552 5552 5551 5550 5548 5547 5543 5539 5537 5535 5535 5535 5536 5538 5541 5544 5547 5549 5551 5552
5582 5580 5577 5573 5570 5567 5565 5562 5559 5556 5552 5549 5545 5541 5537 5532 5530 5527 5531 5536 5538 5541 5540 5538 5536 5534 5532 5530 5529 5527 5525 5522 5520 5518 5517 5517 5518 5521 5524 5528 5532 5535 5538
5572 5570 5567 5564 5561 5559 5556 5553 5550 5546 5543 5538 5535 5531 5527 5524 5519 5515 5513 5517 5519 5522 5521 5520 5516 5513 5510 5508 5507 5506 5505 5504 5502 5500 5498 5497 5498 5499 5502 5506 5510 5515 5519
5563 5561 5558 5555 5552 5550 5547 5543 5540 5536 5532 5528 5524 5520 5515 5511 5506 5500 5494 5492 5496 5503 5501 5500 5496 5491 5487 5484 5482 5481 5481 5480 5480 5478 5476 5475 5475 5477 5480 5483 5487 5492 5497
5554 5552 5549 5546 5543 5540 5536 5533 5529 5525 5521 5516 5512 5507 5503 5498 5492 5486 5479 5472 5466 5473 5486 5482 5474 5468 5461 5458 5456 5454 5454 5454 5453 5453 5452 5451 5451 5453 5455 5459 5463 5468 5473
5545 5542 5539 5535 5532 5529 5525 5521 5517 5513 5508 5504 5498 5493 5488 5482 5476 5469 5462 5456 5448 5443 5456 5466 5453 5445 5438 5434 5431 5428 5428 5427 5428 5427 5426 5427 5427 5429 5432 5436 5441 5445 5451
5534 5531 5528 5524 5521 5517 5513 5508 5504 5498 5493 5488 5482 5476 5470 5463 5457 5451 5443 5437 5430 5422 5425 5443 5434 5425 5417 5412 5410 5407 5406 5405 5406 5405 5405 5405 5407 5409 5412 5415 5420 5425 5430
5523 5520 5516 5512 5509 5504 5499 5494 5489 5483 5477 5470 5463 5456 5450 5443 5436 5429 5423 5417 5411 5404 5400 5411 5417 5406 5399 5394 5391 5390 5389 5389 5390 5390 5390 5391 5392 5394 5396 5399 5402 5407 5412
5512 5508 5504 5499 5495 5490 5485 5480 5474 5468 5461 5453 5445 5437 5430 5421 5416 5409 5403 5398 5393 5388 5382 5383 5393 5389 5384 5379 5376 5376 5375 5375 5376 5377 5378 5379 5380 5381 5383 5386 5388 5392 5396
5500 5496 5492 5487 5482 5477 5471 5465 5459 5452 5445 5438 5430 5421 5413 5405 5398 5393 5388 5383 5377 5373 5368 5367 5372 5374 5371 5367 5363 5363 5365 5364 5365 5366 5367 5368 5369 5370 5372 5374 5377 5380 5383
5488 5483 5479 5475 5469 5463 5456 5450 5443 5437 5430 5424 5416 5407 5399 5391 5386 5380 5376 5372 5366 5362 5359 5358 5360 5361 5362 5357 5354 5353 5355 5357 5358 5356 5356 5357 5357 5359 5361 5362 5364 5367 5371
5476 5471 5467 5462 5456 5450 5443 5437 5430 5424 5417 5409 5402 5394 5386 5379 5374 5370 5366 5363 5358 5353 5351 5349 5352 5352 5353 5350 5348 5346 5346 5348 5351 5350 5347 5350 5348 5350 5351 5352 5354 5356 5360
5464 5459 5454 5448 5443 5436 5429 5423 5416 5409 5402 5394 5385 5379 5374 5368 5362 5358 5355 5353 5350 5346 5345 5343 5343 5344 5344 5343 5340 5341 5340 5340 5343 5342 5338 5343 5341 5342 5344 5345 5347 5349 5351
5452 5447 5441 5435 5429 5422 5414 5408 5401 5395 5387 5379 5371 5365 5360 5357 5351 5347 5346 5345 5343 5341 5338 5337 5337 5338 5338 5337 5335 5334 5335 5335 5337 5336 5332 5336 5337 5337 5338 5338 5340 5341 5344
5440 5434 5428 5421 5414 5408 5399 5392 5385 5379 5372 5366 5359 5353 5348 5345 5343 5340 5339 5339 5339 5338 5336 5336 5337 5338 5338 5337 5335 5333 5332 5332 5335 5335 5331 5330 5332 5331 5332 5333 5334 5335 5337
5427 5421 5415 5407 5399 5392 5385 5376 5368 5362 5358 5354 5349 5343 5339 5336 5335 5334 5332 5332 5333 5334 5333 5333 5334 5334 5334 5333 5332 5329 5328 5327 5328 5330 5329 5326 5326 5323 5325 5327 5327 5327 5328